星链-5850 (STARLINK-5850 )

导读 | 豆包AI

STARLINK-5850是美国太空探索技术公司SpaceX星链计划中的卫星,于北京时间2023年6月22日发射升空。星链项目旨在搭建全球卫星互联网星座,为全球各地提供高速互联网接入服务。该卫星加入低轨星座后,进一步扩展了星链网络的覆盖范围与服务能力,依托低轨部署优势能为用户提供较低延迟的网络服务。

Basic Information
目录编号:
57049
目录名称:
STARLINK-5850
国际标识:
2023-088B
轨道中心:
EARTH
卫星名称:
星链-5850
卫星全名:
星链-5850 (STARLINK-5850 )
卫星状态:
在轨 (已飞行1043 天)
发射日期:
2023-06-22 UTC
国别 :
美国 (US)
星等 :
--
Orbit Information
数据来源 国际轨道数据 AOE轨道数据
星历时间 2026-04-30T12:02:37+0800
7小时前
查看轨道信息
2026-04-26T07:00:00+0800
4天前
查看轨道信息
半长轴 6863.691km 6863.705km
偏心率 0.0001919 0.0001812
轨道倾角 43.003° 43.001°
近地点辐角 286.711° 293.219°
升交点赤经 180.093° 203.839°
平近点角 73.353° 299.589°
近地点 484.236km 484.324km
远地点 486.872km 486.812km
周期 94.318分钟 94.319分钟
每日圈数 15.26744 15.267394
Detailed Information
固有亮度:
5
最大亮度:
2.4
卫星平台:
Starlink v1.5
覆盖范围:
全球
运营商:
太空探索技术公司
运营商所在国:
美国
制造商(研发单位):
太空探索技术公司
制造商所在国:
美国
使用方式:
暂无
Satellite Introduction
星链(Starlink)计划是由太空探索技术公司(SpaceX)提出的一个巨型低轨卫星互联网星座项目,计划在2019年至2024年间在太空搭建由约1.2万颗卫星组成的“星链”网络,其中1584颗将部署在地球上空550千米处的近地轨道,并从2020年开始工作。该卫星仍在工作。
2D Orbit Map
3D Orbit Map
Orbit Altitude Analysis Chart
Orbit Inclination Analysis Chart
Orbit Comprehensive Analysis Chart
View Comprehensive Chart